Wind_Speed
9 9 10 10 9 11 10 5 5 4 3 1 0 1 1 1 2 1 2 2 1 2 2 3 4 4 4 4 6 8 10 12 13 13 13 13 13 11 10 10 9 8 8 9 10 11 12 12 11
8 8 8 6 4 11 8 5 4 5 4 4 3 3 2 2 2 3 3 3 3 2 2 3 4 4 5 6 8 10 11 12 13 12 12 13 14 13 11 10 10 9 9 9 11 12 13 13 13
8 7 6 2 6 2 6 4 7 7 6 7 6 5 4 4 4 5 5 4 4 4 4 4 5 6 6 7 9 10 12 13 13 13 12 12 13 14 13 12 11 10 10 10 12 14 15 14 13
6 6 4 6 11 11 5 8 10 8 7 8 9 6 6 7 6 6 6 5 5 4 5 5 7 8 8 8 9 10 12 13 14 14 13 14 14 14 14 13 12 12 12 12 13 15 15 15 13
5 5 3 9 12 10 10 13 11 10 10 11 11 9 9 8 8 8 8 7 6 5 5 6 7 8 9 10 11 12 13 14 15 15 15 16 16 16 16 16 16 16 16 15 15 15 15 15 14
6 7 4 6 16 11 8 13 11 8 9 10 12 10 10 8 9 8 6 6 6 5 6 6 8 9 11 13 14 16 17 18 18 19 19 19 18 18 19 20 20 19 19 18 18 18 17 16 16
11 9 6 1 17 13 6 13 13 8 10 9 10 10 10 10 9 7 6 6 6 6 8 9 10 12 13 15 17 19 20 21 21 22 22 22 21 21 22 22 23 23 23 22 21 21 21 21 20
15 13 7 1 13 18 17 12 10 15 17 13 12 15 11 10 10 9 7 7 9 10 12 13 15 16 17 19 21 22 23 24 25 26 26 26 25 25 25 26 27 27 27 27 26 25 25 25 25
17 16 7 4 15 18 20 12 9 14 15 18 16 17 14 12 12 11 11 12 14 15 16 18 19 21 22 23 25 26 27 27 28 29 30 31 31 30 31 31 32 31 31 31 31 30 29 29 29
18 17 9 11 17 14 13 12 14 14 11 19 19 17 14 15 15 16 17 17 18 20 21 23 24 26 27 27 28 29 29 29 30 31 32 34 34 34 34 35 36 36 36 35 35 34 33 33 32
21 20 17 17 20 22 22 17 15 11 13 23 23 24 18 18 20 21 21 22 22 24 26 28 30 31 33 32 31 31 31 31 31 32 33 34 34 35 36 37 37 38 38 37 36 35 35 35 35
24 24 26 27 26 26 27 23 17 12 17 28 27 25 18 21 25 26 25 26 26 28 30 31 34 35 37 37 36 35 34 34 34 34 34 33 33 34 35 36 38 39 39 38 38 37 37 37 36
26 26 27 30 31 30 29 26 23 18 21 28 27 28 26 28 29 30 30 30 30 31 33 35 36 37 38 38 37 37 36 37 37 38 37 35 35 34 34 35 36 36 35 34 34 34 33 32 30
26 27 29 30 29 28 26 25 24 21 20 30 30 30 32 32 32 33 33 32 33 35 37 38 38 38 38 38 38 38 38 38 38 38 37 36 36 34 33 32 31 30 29 29 28 27 26 26 25
26 27 28 28 26 22 21 24 24 20 19 30 32 31 32 33 33 35 35 36 36 38 40 40 39 38 37 38 39 40 39 37 36 36 35 34 33 32 30 29 27 26 25 24 23 23 23 23 24
22 23 24 23 22 19 23 26 21 16 21 30 33 34 36 34 36 38 40 42 42 42 43 37 38 36 36 38 41 41 38 36 34 33 32 30 29 28 28 27 26 24 23 22 22 22 22 23 24
12 17 16 14 15 20 25 24 19 20 25 28 32 35 38 38 40 42 44 46 45 43 38 35 37 36 37 39 40 39 35 31 30 29 28 27 26 26 26 26 25 23 22 21 21 21 21 22 23
9 9 12 11 14 24 23 19 18 26 31 32 35 39 42 43 44 47 50 50 46 41 38 36 36 37 38 39 40 37 32 29 28 27 26 26 25 24 24 23 21 20 20 19 18 18 18 20 22
13 12 10 11 18 24 23 20 22 30 33 34 38 42 44 45 46 50 52 47 41 37 35 36 38 38 39 40 39 35 31 29 28 27 26 26 25 24 22 20 18 17 16 16 16 16 17 19 21
3 6 10 15 19 21 25 26 24 27 32 34 35 37 40 43 46 46 42 35 32 32 35 38 39 40 41 40 38 35 33 31 28 27 26 25 24 22 20 19 17 16 17 17 17 17 18 20 22
6 9 13 15 18 20 20 19 17 20 27 29 29 32 34 37 39 38 29 20 23 29 33 37 40 41 41 39 37 35 34 33 30 27 24 23 22 22 21 20 20 20 20 19 19 19 19 20 23
9 13 16 18 19 19 17 16 15 20 25 27 30 32 29 34 40 41 35 30 30 31 35 37 39 39 38 36 35 34 32 30 29 26 24 22 21 22 22 23 23 24 23 22 21 20 19 20 22
11 13 13 13 12 11 13 13 17 22 26 27 28 32 36 40 41 41 39 37 36 38 39 35 33 32 31 31 31 29 27 26 26 26 25 23 22 23 24 25 27 28 27 26 24 22 22 21 23
10 9 7 11 17 21 21 16 17 20 25 28 31 34 36 38 38 39 38 38 39 38 36 32 31 31 30 30 29 28 26 25 25 27 27 26 26 25 25 27 29 30 30 28 26 25 24 24 24
8 8 8 14 22 25 17 9 17 20 22 25 28 30 33 34 35 35 36 36 37 38 37 36 34 34 34 34 33 32 30 29 28 29 30 30 31 30 29 29 30 31 31 30 29 28 27 26 26
9 7 9 15 16 18 22 20 23 24 26 25 26 30 34 36 38 39 40 40 41 40 40 40 40 40 40 40 40 40 39 37 36 34 33 33 34 35 35 34 34 34 34 33 31 30 29 28 28
11 10 11 15 14 14 18 30 31 28 28 25 27 34 38 40 42 44 45 45 46 47 46 46 46 46 47 47 47 47 47 47 46 45 43 41 39 38 38 37 37 37 36 36 34 32 31 29 29
15 15 15 16 17 18 17 30 34 35 33 35 37 39 41 44 46 47 49 50 50 51 52 52 53 53 54 55 55 55 55 55 55 54 53 51 48 45 43 40 39 39 39 38 36 34 32 30 30
14 17 19 20 20 21 21 30 34 36 37 40 41 43 46 48 49 51 52 53 54 55 56 57 57 58 60 61 62 62 62 62 62 61 60 59 57 54 51 48 45 43 41 40 38 35 32 30 30
11 19 23 24 24 24 25 32 33 37 39 42 45 48 51 52 53 54 56 57 57 58 59 60 61 62 63 64 65 66 67 66 66 66 66 65 63 60 57 54 53 50 46 43 41 39 35 32 30
Wind_Direction
103 103 99 102 112 99 103 221 232 271 303 299 148 202 177 56 13 178 191 186 197 233 222 237 249 253 268 292 305 311 315 321 324 324 326 328 332 337 341 347 350 351 353 354 355 352 347 341 335
112 117 117 107 96 119 136 262 304 321 311 296 270 259 252 210 181 176 197 188 184 224 244 257 257 260 274 289 299 305 310 315 320 320 319 322 325 328 329 333 340 343 342 342 339 337 335 332 327
129 135 121 54 14 28 122 304 331 325 311 308 291 289 281 258 233 218 224 210 203 222 244 264 268 271 280 291 301 307 311 315 319 318 313 315 318 319 321 321 325 331 333 331 329 327 325 321 317
152 148 112 25 347 321 340 313 321 321 317 315 299 297 288 282 263 259 252 248 250 251 260 273 280 285 291 297 303 307 309 312 314 314 308 306 307 307 309 311 314 319 324 325 324 323 324 324 320
184 163 138 15 299 284 297 301 303 306 311 308 301 306 300 296 285 285 273 273 285 288 292 298 300 300 301 304 306 305 305 306 308 308 305 303 300 299 300 304 309 312 316 321 322 322 324 326 326
216 189 132 338 291 264 267 288 292 286 294 291 293 301 303 297 296 299 286 289 297 303 306 311 311 309 309 310 310 308 306 306 308 308 306 303 299 297 297 301 304 305 307 311 315 316 317 318 319
245 229 184 5 298 292 273 293 287 275 269 234 270 298 296 296 300 305 303 307 311 317 316 315 312 310 309 309 307 305 303 301 300 300 300 299 297 294 293 294 296 298 298 299 302 305 307 307 308
250 248 220 100 285 278 268 236 249 266 270 268 289 289 285 295 296 295 298 306 310 316 317 315 313 314 313 312 309 306 302 298 296 294 292 289 288 288 287 287 289 291 291 292 293 294 296 297 297
247 247 229 308 274 260 261 263 263 263 288 295 284 280 289 289 288 285 289 297 305 309 312 313 316 317 316 316 314 309 305 301 296 292 289 286 284 283 283 284 284 284 286 287 287 288 288 286 286
245 240 214 268 258 246 250 266 284 297 293 283 276 278 277 282 286 287 288 292 300 306 309 312 313 315 314 313 312 309 305 301 297 292 287 284 282 281 280 280 281 282 283 284 284 285 284 283 282
246 236 211 238 250 247 246 260 279 285 288 275 269 268 274 288 291 292 292 294 300 306 311 314 314 314 314 312 309 306 302 299 296 294 291 287 283 281 279 279 278 278 279 282 284 286 286 285 284
251 242 227 230 241 245 252 252 249 253 262 267 269 276 285 296 295 293 293 294 298 303 308 311 311 312 313 312 310 307 303 299 296 293 291 289 287 284 282 281 279 276 276 278 281 284 284 284 285
250 250 243 241 246 252 258 260 255 248 261 271 273 277 285 289 292 293 293 294 297 300 303 305 307 308 309 309 307 306 304 301 299 296 292 290 289 287 286 284 284 282 282 283 282 283 283 286 289
259 252 245 246 250 254 259 262 259 250 255 273 272 273 280 286 288 290 287 289 293 298 300 301 301 304 305 305 305 306 305 302 299 295 293 291 291 291 292 291 294 295 294 292 292 293 293 294 297
266 264 260 256 256 262 266 263 261 256 248 262 269 272 277 282 282 284 282 289 290 294 294 294 297 301 301 302 305 307 307 302 297 293 291 290 291 293 293 293 294 295 295 294 295 295 296 295 295
272 272 267 258 256 259 256 258 258 262 257 256 262 269 276 279 280 282 283 283 286 290 287 288 295 296 298 302 305 307 307 303 298 294 291 291 291 292 291 290 291 292 292 291 293 295 296 296 296
320 305 293 273 256 244 249 262 262 255 250 250 258 265 273 279 281 281 282 281 282 285 281 289 292 294 298 302 306 307 304 301 298 295 292 290 289 289 288 289 289 288 287 289 292 296 301 303 303
267 267 280 276 242 236 246 254 255 250 246 247 257 267 274 279 278 280 280 277 275 277 275 283 287 293 297 302 305 303 300 299 295 292 290 289 287 285 284 285 284 283 285 289 293 299 305 309 309
241 217 216 226 232 245 252 255 258 259 258 260 266 273 277 279 277 274 271 263 262 268 275 280 285 291 296 300 301 298 296 296 293 289 287 285 284 282 281 280 277 279 284 288 292 300 308 314 316
276 254 243 242 244 251 262 268 264 268 275 275 277 277 273 272 272 268 254 244 247 263 272 277 285 291 295 297 297 296 295 294 291 288 284 280 279 279 278 276 275 276 280 285 290 298 307 315 320
277 252 244 247 250 256 271 284 284 267 262 267 275 275 271 272 269 270 265 259 272 271 273 280 285 289 293 294 294 293 292 290 286 283 280 275 274 272 272 269 271 272 273 277 282 290 299 309 316
276 270 257 258 265 267 266 272 276 268 265 268 277 276 274 286 289 287 288 290 288 286 287 288 288 288 290 292 293 292 289 285 283 281 278 272 269 271 270 268 269 271 273 275 279 284 294 304 311
282 273 272 277 280 266 251 248 247 253 263 273 278 283 288 293 293 292 296 296 295 296 295 293 288 286 286 289 291 290 289 287 284 281 278 275 274 276 275 273 271 272 273 275 277 281 288 298 306
309 302 301 302 285 269 255 232 241 260 276 279 282 286 290 292 293 293 296 296 296 297 297 299 293 287 285 288 290 289 288 287 286 283 280 279 279 277 277 276 274 272 271 273 276 279 284 291 299
313 320 319 318 323 328 327 291 262 277 285 286 287 290 293 296 297 297 297 296 296 295 293 294 292 288 287 287 287 285 284 283 281 280 281 283 283 282 280 279 276 273 272 273 276 279 282 287 293
343 344 332 312 310 318 320 296 276 271 274 283 289 296 298 298 298 298 298 297 295 293 290 287 286 284 283 283 283 281 280 279 278 277 277 278 278 279 280 280 277 274 271 272 275 278 280 284 289
339 331 312 303 305 304 298 293 291 290 282 278 291 299 300 299 298 297 295 294 293 291 289 286 283 281 279 279 278 277 277 276 275 274 272 270 270 272 274 275 274 272 270 270 272 274 276 279 284
318 323 321 317 310 298 295 298 298 301 305 307 303 300 300 299 298 296 294 292 291 289 287 285 283 280 278 277 276 275 274 274 273 272 271 270 268 267 267 268 269 268 267 266 268 269 271 274 279
290 313 316 313 310 302 300 293 293 298 299 299 298 297 297 297 296 295 293 292 291 289 287 285 282 280 278 277 275 274 273 272 271 270 269 268 268 266 264 264 264 266 266 264 263 264 266 271 275
299 317 319 316 312 309 305 293 297 296 297 297 298 297 296 296 295 294 293 292 292 290 288 286 284 281 279 277 275 273 272 271 270 269 269 268 267 266 265 264 263 263 264 264 262 261 262 266 272
Height
5921 5922 5921 5922 5922 5920 5921 5923 5921 5920 5920 5919 5918 5917 5915 5916 5917 5918 5917 5916 5917 5917 5918 5918 5917 5917 5917 5917 5917 5916 5915 5915 5914 5913 5912 5911 5910 5909 5907 5906 5905 5903 5903 5902 5901 5900 5899 5898 5898
5922 5923 5923 5923 5921 5918 5920 5922 5921 5921 5920 5919 5918 5917 5916 5915 5915 5916 5916 5916 5916 5916 5917 5917 5917 5917 5916 5916 5916 5915 5915 5914 5913 5912 5912 5911 5910 5909 5908 5907 5905 5904 5903 5902 5902 5901 5900 5898 5897
5924 5924 5924 5924 5921 5919 5916 5921 5921 5920 5920 5919 5918 5917 5916 5915 5915 5915 5915 5915 5915 5915 5915 5916 5916 5916 5916 5915 5915 5914 5914 5913 5912 5912 5911 5910 5909 5909 5908 5907 5905 5904 5903 5902 5901 5900 5899 5898 5897
5924 5925 5926 5925 5924 5921 5918 5921 5921 5920 5919 5919 5917 5917 5916 5916 5915 5915 5915 5915 5915 5915 5914 5914 5914 5915 5914 5914 5914 5913 5913 5912 5912 5911 5910 5909 5908 5907 5906 5906 5904 5903 5902 5901 5900 5899 5899 5897 5896
5924 5925 5926 5925 5927 5925 5922 5922 5922 5920 5919 5918 5916 5916 5916 5916 5916 5915 5914 5914 5915 5915 5914 5914 5914 5913 5913 5912 5912 5911 5911 5911 5910 5909 5908 5907 5906 5905 5905 5904 5903 5902 5901 5900 5899 5898 5897 5896 5895
5924 5925 5925 5927 5926 5922 5920 5921 5921 5920 5917 5916 5913 5915 5915 5915 5915 5914 5914 5914 5914 5913 5913 5913 5912 5912 5912 5911 5910 5910 5909 5908 5907 5907 5906 5905 5904 5903 5902 5901 5900 5899 5898 5898 5897 5896 5895 5895 5894
5922 5923 5923 5926 5927 5921 5920 5921 5920 5915 5914 5913 5910 5913 5913 5914 5914 5913 5913 5913 5913 5913 5912 5911 5911 5911 5910 5909 5908 5907 5906 5905 5904 5904 5903 5902 5901 5900 5899 5898 5897 5896 5895 5894 5894 5893 5893 5892 5892
5919 5921 5923 5926 5928 5923 5921 5917 5915 5913 5913 5909 5909 5910 5911 5912 5913 5912 5912 5912 5911 5911 5911 5910 5909 5908 5907 5906 5905 5904 5903 5902 5901 5900 5899 5898 5897 5897 5895 5894 5893 5892 5890 5890 5889 5889 5889 5888 5888
5916 5919 5922 5925 5924 5920 5918 5912 5911 5912 5911 5910 5908 5907 5909 5910 5910 5910 5910 5910 5909 5909 5908 5907 5907 5905 5904 5903 5901 5899 5898 5897 5896 5895 5894 5893 5892 5892 5891 5890 5888 5887 5886 5885 5884 5883 5883 5883 5882
5913 5915 5919 5923 5919 5916 5915 5915 5915 5914 5912 5909 5908 5903 5904 5907 5907 5907 5907 5907 5906 5905 5904 5903 5902 5901 5899 5898 5897 5894 5893 5892 5890 5889 5888 5886 5886 5886 5885 5884 5882 5881 5880 5879 5877 5877 5876 5876 5875
5908 5911 5913 5915 5914 5914 5913 5915 5915 5915 5915 5906 5905 5902 5900 5903 5903 5902 5902 5902 5901 5900 5899 5897 5896 5895 5893 5891 5890 5889 5887 5886 5885 5882 5881 5880 5879 5878 5878 5877 5877 5874 5872 5871 5870 5869 5868 5868 5868
5903 5905 5907 5907 5908 5908 5909 5911 5913 5914 5913 5902 5901 5895 5891 5897 5899 5897 5897 5897 5897 5896 5894 5893 5891 5889 5887 5885 5883 5881 5880 5878 5877 5876 5874 5872 5871 5871 5870 5869 5868 5867 5865 5864 5863 5862 5862 5861 5860
5897 5899 5901 5902 5902 5903 5905 5906 5907 5909 5908 5899 5898 5895 5894 5895 5895 5893 5892 5890 5890 5890 5888 5887 5885 5884 5881 5879 5877 5875 5872 5871 5869 5867 5866 5865 5863 5863 5862 5861 5860 5859 5857 5857 5856 5855 5855 5854 5854
5891 5892 5894 5896 5897 5899 5900 5901 5902 5904 5906 5898 5895 5894 5892 5891 5889 5888 5884 5883 5882 5883 5882 5880 5878 5877 5875 5873 5871 5868 5866 5864 5861 5860 5858 5858 5856 5855 5855 5854 5853 5852 5851 5850 5850 5849 5849 5849 5848
5886 5887 5888 5890 5892 5894 5896 5897 5898 5900 5901 5896 5890 5889 5889 5886 5884 5881 5877 5875 5874 5875 5873 5871 5870 5869 5867 5865 5863 5861 5859 5857 5855 5853 5852 5851 5850 5849 5848 5847 5847 5846 5845 5844 5844 5843 5843 5842 5842
5882 5882 5883 5886 5888 5891 5894 5892 5894 5896 5896 5893 5886 5884 5883 5882 5879 5876 5872 5868 5865 5865 5860 5858 5860 5861 5860 5858 5856 5854 5852 5850 5848 5846 5845 5844 5843 5842 5842 5841 5841 5840 5839 5839 5838 5838 5837 5836 5836
5879 5879 5880 5883 5886 5889 5888 5887 5889 5890 5888 5885 5881 5879 5877 5876 5873 5868 5865 5859 5856 5855 5851 5846 5851 5852 5851 5850 5849 5847 5845 5843 5841 5840 5839 5838 5837 5837 5835 5835 5835 5834 5834 5833 5833 5832 5832 5831 5829
5880 5883 5884 5884 5884 5882 5882 5883 5884 5880 5878 5877 5875 5873 5871 5869 5866 5860 5854 5847 5845 5844 5844 5845 5844 5843 5842 5842 5842 5840 5839 5837 5836 5835 5834 5832 5832 5831 5830 5830 5830 5829 5829 5828 5828 5827 5826 5824 5823
5875 5876 5878 5881 5878 5876 5875 5877 5877 5873 5871 5870 5870 5868 5865 5861 5856 5848 5837 5829 5831 5838 5837 5836 5837 5837 5836 5836 5835 5834 5832 5831 5830 5829 5828 5827 5826 5826 5825 5825 5825 5825 5824 5823 5822 5821 5820 5819 5817
5873 5874 5875 5874 5872 5871 5871 5871 5871 5869 5866 5865 5862 5859 5854 5848 5838 5827 5815 5805 5817 5828 5832 5831 5831 5831 5830 5829 5828 5827 5825 5824 5824 5822 5822 5821 5820 5820 5820 5820 5820 5820 5819 5819 5817 5816 5814 5813 5811
5869 5868 5867 5867 5866 5866 5866 5866 5866 5864 5859 5854 5852 5848 5842 5832 5823 5813 5800 5794 5810 5821 5822 5823 5825 5824 5824 5823 5822 5821 5819 5817 5817 5816 5816 5815 5815 5815 5815 5815 5815 5815 5814 5813 5812 5811 5809 5808 5805
5866 5864 5864 5863 5863 5863 5865 5863 5862 5855 5850 5848 5846 5838 5831 5829 5825 5815 5805 5805 5811 5813 5813 5814 5817 5817 5816 5816 5815 5814 5813 5811 5810 5810 5809 5809 5809 5809 5809 5809 5809 5809 5809 5808 5807 5806 5804 5803 5800
5862 5861 5860 5860 5859 5857 5857 5857 5855 5849 5845 5845 5843 5839 5834 5830 5826 5819 5813 5811 5809 5809 5808 5807 5808 5809 5809 5809 5808 5807 5806 5806 5805 5804 5804 5804 5803 5803 5803 5803 5803 5803 5803 5802 5801 5800 5798 5797 5795
5860 5859 5858 5857 5854 5850 5847 5848 5847 5846 5844 5842 5840 5837 5833 5828 5823 5818 5814 5811 5808 5807 5805 5803 5802 5802 5802 5802 5801 5801 5801 5800 5799 5798 5797 5797 5797 5797 5797 5797 5797 5797 5797 5796 5795 5794 5792 5790 5788
5859 5858 5857 5855 5849 5843 5842 5842 5842 5842 5839 5837 5835 5832 5828 5824 5819 5814 5810 5807 5805 5803 5801 5798 5797 5796 5795 5794 5793 5793 5793 5793 5793 5792 5791 5791 5790 5790 5790 5790 5790 5789 5789 5789 5788 5787 5786 5784 5782
5858 5857 5857 5854 5851 5850 5844 5840 5836 5832 5832 5831 5829 5826 5822 5818 5814 5809 5805 5802 5798 5796 5794 5792 5790 5789 5787 5786 5784 5784 5784 5784 5784 5783 5783 5783 5782 5781 5781 5782 5782 5781 5781 5781 5781 5780 5779 5778 5776
5858 5856 5855 5852 5850 5849 5846 5837 5831 5824 5822 5823 5823 5821 5816 5811 5806 5802 5798 5794 5791 5787 5785 5783 5781 5778 5776 5775 5774 5772 5772 5772 5772 5772 5772 5772 5772 5772 5772 5773 5773 5773 5773 5773 5772 5772 5771 5770 5769
5857 5855 5852 5850 5847 5844 5843 5835 5828 5823 5818 5818 5816 5813 5809 5804 5798 5793 5788 5784 5780 5776 5772 5770 5767 5765 5763 5761 5760 5758 5757 5757 5757 5757 5757 5758 5759 5760 5761 5762 5762 5763 5763 5764 5764 5764 5763 5763 5762
5855 5853 5850 5848 5845 5841 5838 5834 5826 5822 5817 5813 5809 5805 5800 5795 5789 5783 5777 5772 5767 5763 5758 5755 5752 5749 5747 5745 5744 5742 5741 5740 5739 5740 5740 5741 5743 5745 5747 5749 5750 5751 5752 5753 5754 5755 5755 5755 5754
5850 5850 5847 5844 5841 5837 5834 5830 5823 5817 5813 5807 5801 5795 5789 5784 5778 5771 5765 5759 5754 5749 5743 5739 5735 5732 5730 5727 5725 5723 5722 5721 5721 5721 5721 5722 5724 5727 5730 5733 5736 5738 5740 5742 5743 5745 5746 5747 5746